Regional Weather Roundup
Issued by NWS

Home | Current Version | Previous Version | Graphics & Text | Print | Product List | Glossary On
Versions: 1 2 3 4 5 6 7 8 9 10 11 12 13 14 15 16 17 18 19 20 21 22 23 24 25 26 27 28 29 30 31 32 33 34 35 36 37 38 39 40 41 42 43 44 45 46 47 48 49 50
000
ASUS43 KIND 290659
RWRIN

WEATHER ROUNDUP FOR INDIANA
NATIONAL WEATHER SERVICE INDIANAPOLIS IN
300 AM EDT SAT AUG 29 2015

NOTE: "FAIR" INDICATES FEW OR NO CLOUDS BELOW 12,000 FEET WITH NO
SIGNIFICANT WEATHER AND/OR OBSTRUCTIONS TO VISIBILITY.

* - STATION DOES NOT REPORT WEATHER SUCH AS PRECIPITATION OR FOG.

+ - STATION NOT QUALITY CONTROLLED BY THE NATIONAL WEATHER SERVICE.
    USE DATA WITH CAUTION...ESPECIALLY DEWPOINT AND RELATIVE
    HUMIDITY OBSERVATIONS.

INZ001>003-010>013-019-020-290800-
NORTHWEST INDIANA

CITY           SKY/WX    TMP DP  RH WIND       PRES   REMARKS
GARY /AIRPORT/ PTCLDY    64  61  89 SE5       30.08F
KNOX *+        CLOUDY    61  59  94 CALM      30.09S
MONTICELLO +   CLOUDY    65  60  81 SE3       30.07F
RENSSELAER +   CLOUDY    63  61  94 CALM      30.09S

$$

LMZ046-743>745-290800-
SOUTHERN LAKE MICHIGAN

STATION/POSITION TIME  TEMP    WIND        PRES    WAVE
                       AIR SEA DIR/SP/G            HT
                 (UTC) (F)     (DEG/KT/KT) (MB)    (FT)
BURNS HARBOR     0600   70     160/  7/ 10 1019.0F
MICHIGAN CITY    0600   69     110/  5/  6   N/A
5NW MICH CITY    0600   70 71  160/  8/ 10   N/A     1

$$

INZ004-005-014>016-021>024-290800-
NORTH CENTRAL INDIANA

CITY           SKY/WX    TMP DP  RH WIND       PRES   REMARKS
GOSHEN         MOCLDY    65  59  81 SE8       30.11F
LOGANSPORT +   CLOUDY    59  55  88 SE3       30.10F FOG
SOUTH BEND     CLOUDY    67  58  72 SE8       30.10F
WARSAW +       MOCLDY    63  57  82 SE3       30.11F

$$

INZ006>009-017-018-025>027-290800-
NORTHEAST INDIANA

CITY           SKY/WX    TMP DP  RH WIND       PRES   REMARKS
ANGOLA *+      CLEAR     63  54  72 CALM      30.13F
AUBURN +       CLOUDY    63  59  88 E3        30.13F
FORT WAYNE     CLOUDY    65  58  78 SE3       30.12F

$$

INZ028-029-035-036-043>045-051>053-290800-
WEST CENTRAL INDIANA

CITY           SKY/WX    TMP DP  RH WIND       PRES   REMARKS
CRAWFORDSVL +  CLOUDY    60  56  87 SE3       30.08F
GREENCASTLE +  CLOUDY    61  55  82 E5        30.09F
LAFAYETTE      CLOUDY    63  58  83 SE5       30.07F
TERRE HAUTE    CLOUDY    64  60  87 CALM      30.07F

$$

INZ030>032-037>040-046>048-054>057-064-065-290800-
CENTRAL INDIANA

CITY           SKY/WX    TMP DP  RH WIND       PRES   REMARKS
FRANKFORT +    CLOUDY   N/A N/A N/A SE3       30.11S
GREENWOOD *+   MOCLDY    64  55  72 SE3       30.10F
INDIANAPOLIS   MOCLDY    66  58  75 SE5       30.08S
-EAGLE CREEK   CLOUDY    66  58  75 SE3       30.09F
KOKOMO *+      CLOUDY    61  10  13 SE6       30.10F
MT COMFORT *+  MOCLDY    63  59  88 SE3       30.11S
SHELBYVILLE    PTCLDY    65  59  81 SE5       30.09F
ZIONSVILLE +   CLOUDY    64  58  82 CALM      30.11F

$$

INZ033-034-041-042-049-050-058-059-290800-
EAST CENTRAL INDIANA

CITY           SKY/WX    TMP DP  RH WIND       PRES   REMARKS
MUNCIE         MOCLDY    64  58  80 S3        30.11F

$$

INZ060-061-067>069-081>083-085>088-290800-
SOUTHWEST INDIANA

CITY           SKY/WX    TMP DP  RH WIND       PRES   REMARKS
EVANSVILLE     PTCLDY    69  64  84 NE3       30.05F
HUNTINGBURG *+ MOCLDY    66  61  82 SE8       30.06F

$$

INZ062-063-066-070>080-084-089>092-290800-
SOUTH CENTRAL AND SOUTHEAST INDIANA

CITY           SKY/WX    TMP DP  RH WIND       PRES   REMARKS
BLOOMINGTON    MOCLDY    64  61  90 CALM      30.09F
MADISON *+     PTCLDY    64  59  82 E5        30.12F
SEYMOUR +      MOCLDY    63  61  94 CALM      30.08F

$$




USA.gov is the U.S. government's official web portal to all federal, state and local government web resources and services.